EHI
0 0 0 0 0 0 0 0 0 0 0 0 0 0 0 0 0 0 0 0 0 0 0 0 0 0 0 0 0 0 0 0 0 1 1 1 0 0 0 0 0 0 0
0 0 0 0 0 0 0 0 0 0 0 0 0 0 0 0 0 0 0 0 0 0 0 0 0 0 0 0 0 0 0 0 0 0 0 0 0 0 0 0 0 0 0
0 0 0 0 0 0 0 0 0 0 0 0 0 0 0 0 0 0 0 0 0 0 0 0 0 0 0 0 0 0 0 0 0 0 0 0 0 0 0 0 0 0 0
0 0 0 0 0 0 0 0 0 0 0 0 0 0 0 0 0 0 0 0 0 0 0 0 0 0 0 0 0 0 0 0 0 0 0 0 0 0 0 0 0 0 0
0 0 0 0 0 0 0 0 0 0 0 0 0 0 0 0 0 0 0 0 0 0 0 0 0 0 0 0 0 0 0 0 0 0 0 0 0 0 0 0 0 0 0
0 0 0 0 0 0 0 0 0 0 0 0 0 0 0 0 0 0 0 0 0 0 0 0 0 0 0 0 0 0 0 0 0 0 0 0 0 0 0 0 0 0 0
0 0 0 0 0 0 0 0 0 0 0 0 0 0 0 0 0 0 0 0 0 0 0 0 0 0 0 0 0 0 0 0 0 0 0 0 0 0 0 0 0 0 0
0 0 0 0 0 0 0 0 0 0 0 0 0 0 0 0 0 0 0 0 0 0 0 0 0 0 0 0 0 0 0 0 0 0 0 0 0 0 0 0 0 0 0
0 0 0 0 0 0 0 0 0 0 0 0 0 0 0 0 0 0 0 0 0 0 0 0 0 0 0 0 0 0 0 0 0 0 0 0 0 0 0 0 0 0 0
0 0 0 0 0 0 0 0 0 0 0 0 0 0 0 0 0 0 0 0 0 0 0 0 0 0 0 0 0 0 0 0 0 0 0 0 0 0 0 0 0 0 0
0 0 0 0 0 0 0 0 0 0 0 0 0 0 0 0 0 0 0 0 0 0 0 0 0 0 0 0 0 0 0 0 0 0 0 0 0 0 0 0 0 0 0
0 0 0 0 0 0 0 0 0 0 0 0 0 0 0 0 0 0 0 0 0 0 0 0 0 0 0 0 0 0 0 0 0 0 0 0 0 0 0 0 0 0 0
0 0 0 0 0 0 0 0 0 0 0 0 0 0 0 0 0 0 0 0 0 0 0 0 0 0 0 0 0 0 0 0 0 0 0 0 0 0 0 0 0 0 0
0 0 0 0 0 0 0 0 0 0 0 0 0 0 0 0 0 0 0 0 0 0 0 0 0 0 0 0 0 0 0 0 0 0 0 0 0 0 0 0 0 0 0
0 0 0 0 0 0 0 0 0 0 0 0 0 0 0 0 0 0 0 0 0 0 0 0 0 0 0 0 0 0 0 0 0 0 0 0 0 0 0 0 0 0 0
0 0 0 0 0 0 0 0 0 0 0 0 0 0 0 0 0 0 0 0 0 0 0 0 0 0 0 0 0 0 0 0 0 0 0 0 0 0 0 0 0 0 0
0 0 0 0 0 0 0 0 0 0 0 0 0 0 0 0 0 0 0 0 0 0 0 0 0 0 0 0 0 0 0 0 0 0 0 0 0 0 0 0 0 0 0
0 0 0 0 0 0 0 0 0 0 0 0 0 0 0 0 0 0 0 0 0 0 0 0 0 0 0 0 0 0 0 0 0 0 0 0 0 0 0 0 0 0 0
0 0 0 0 0 0 0 0 0 0 0 0 0 0 0 0 0 0 0 0 0 0 0 0 0 0 0 0 0 0 0 0 0 0 0 0 0 0 0 0 0 0 0
0 0 0 0 0 0 0 0 0 0 0 0 0 0 0 0 0 0 0 0 0 0 0 0 0 0 0 0 0 0 0 0 0 0 0 0 0 0 0 0 0 0 0
0 0 0 0 0 0 0 0 0 0 0 0 0 0 0 0 0 0 0 0 0 0 0 0 0 0 0 0 0 0 0 0 0 0 0 0 0 0 0 0 0 0 0
0 0 0 0 0 0 0 0 0 0 0 0 0 0 0 0 0 0 0 0 0 0 0 0 0 0 0 0 0 0 0 0 0 0 0 0 0 0 0 0 0 0 0
0 0 0 0 0 0 0 0 0 0 0 0 0 0 0 0 0 0 0 0 0 0 0 0 0 0 0 0 0 0 0 0 0 0 0 0 0 0 0 0 0 0 0
0 0 0 0 0 0 0 0 0 0 0 0 0 0 0 0 0 0 0 0 0 0 0 0 0 0 0 0 0 0 0 0 0 0 0 0 0 0 0 0 0 0 0
0 0 0 0 0 0 0 0 0 0 0 0 0 0 0 0 0 0 0 0 0 0 0 0 0 0 0 0 0 0 0 0 0 0 0 0 0 0 0 0 0 0 0
0 0 0 0 0 0 0 0 0 0 0 0 0 0 0 0 0 0 0 0 0 0 0 0 0 0 0 0 0 0 0 0 0 0 0 0 0 0 0 0 0 0 0
Wind_Speed
3 3 2 2 2 2 2 2 2 2 2 2 2 3 3 3 2 2 2 4 4 4 5 5 5 5 5 5 5 5 5 5 5 5 5 5 5 5 5 5 4 4 4
3 3 3 2 2 2 2 2 2 2 2 2 3 3 3 2 3 2 2 3 5 5 4 4 4 4 4 5 4 4 4 4 4 4 4 4 4 4 4 4 4 4 4
4 4 3 2 2 2 3 2 3 2 2 2 3 2 2 2 2 2 2 2 2 4 5 5 4 4 4 4 4 3 3 3 3 3 3 3 3 3 3 3 4 4 4
4 4 3 3 2 2 3 3 2 2 2 2 2 2 2 2 2 2 2 2 2 2 3 5 4 4 4 3 3 3 2 2 2 2 2 2 2 3 3 3 3 3 4
4 4 4 3 3 3 2 3 2 2 2 2 2 2 1 1 1 2 1 2 1 2 1 3 4 4 3 3 3 3 2 2 2 2 2 2 2 2 2 2 2 2 3
4 4 3 4 4 3 3 2 2 2 2 3 3 2 2 1 1 1 1 1 1 1 1 1 2 2 3 3 2 2 2 1 2 2 2 2 2 1 2 2 2 2 3
5 4 3 4 4 4 4 4 3 3 2 2 3 2 2 2 1 1 1 1 1 1 1 1 1 1 1 3 2 2 2 1 1 1 2 2 2 2 2 3 3 3 4
5 4 5 4 5 4 5 4 4 3 1 1 2 2 1 1 1 1 0 1 0 1 1 0 1 1 1 1 2 3 2 2 1 2 2 3 3 4 3 3 4 4 5
4 4 5 5 5 5 5 5 6 5 3 1 1 2 3 3 1 1 1 0 0 0 0 0 0 0 0 0 1 3 3 3 3 3 3 3 4 5 5 5 5 5 5
5 5 5 5 5 5 5 6 5 3 5 3 1 1 1 3 3 1 1 1 1 1 1 1 1 1 0 1 1 2 3 3 3 4 4 4 5 6 6 6 6 6 7
4 5 5 5 5 4 5 6 5 4 4 4 3 2 2 1 1 2 2 1 1 2 1 1 1 1 1 1 2 2 3 3 4 5 6 6 6 7 7 7 8 8 8
3 4 5 5 5 4 5 5 5 6 4 4 3 2 2 2 2 2 2 1 2 2 1 1 1 1 1 2 3 3 3 4 5 6 7 7 6 7 7 8 8 9 9
3 5 5 5 5 5 5 5 5 5 5 5 4 3 2 2 2 2 2 1 1 1 1 1 2 1 1 1 2 3 3 4 5 6 7 7 7 7 7 8 9 10 10
5 5 5 5 5 5 5 5 4 4 4 4 4 3 2 2 2 2 3 3 1 1 1 3 1 2 1 1 3 3 3 5 6 6 7 7 7 7 7 8 9 10 10
4 5 6 6 5 5 5 5 4 5 5 4 4 4 2 2 2 2 2 3 4 2 3 3 2 1 1 1 3 2 3 5 6 7 7 7 7 7 7 8 9 9 10
5 6 6 6 6 6 6 5 5 5 5 4 4 4 3 2 2 2 2 2 2 3 3 2 2 2 2 1 2 2 3 6 6 7 7 7 7 7 7 8 9 9 9
6 7 7 7 7 7 6 6 5 5 5 4 4 5 5 4 3 2 2 2 2 2 2 2 1 1 1 1 2 2 2 3 4 7 7 7 7 7 7 7 8 8 9
6 6 6 7 7 6 7 7 7 6 7 7 6 5 5 4 4 3 3 3 3 2 3 3 2 2 2 2 2 2 2 3 3 6 7 7 6 6 6 7 7 7 8
6 6 6 7 7 7 7 7 7 7 7 7 7 7 6 5 5 3 4 3 3 2 2 2 2 1 1 1 1 2 2 2 3 4 6 6 6 7 7 8 8 8 8
7 7 7 7 7 7 7 7 7 7 6 6 6 6 6 7 7 6 4 4 3 3 2 2 2 2 2 1 1 2 2 2 3 3 4 3 5 7 8 8 9 9 8
6 6 6 6 6 6 6 7 7 7 6 5 5 5 5 6 7 6 5 5 5 3 2 2 2 1 2 2 2 2 2 2 3 2 2 2 3 3 4 7 8 9 9
5 6 6 6 6 5 8 9 7 6 6 6 5 4 4 5 6 7 7 7 7 5 5 4 3 3 4 3 2 2 2 1 3 2 1 4 2 3 4 4 8 10 10
5 5 5 5 6 6 9 10 9 6 5 5 5 4 3 4 4 4 5 5 6 7 7 5 5 5 5 4 4 3 3 3 4 2 1 4 2 4 4 5 10 10 9
4 4 5 5 4 5 8 9 8 5 5 5 5 5 5 5 5 5 4 3 4 4 5 4 5 5 4 4 5 4 3 2 3 2 2 3 3 3 4 4 8 9 9
4 3 4 4 4 4 7 7 6 4 4 4 4 4 5 5 6 6 4 4 3 3 4 4 4 4 4 5 4 2 2 1 3 3 2 2 2 3 4 4 5 7 8
3 3 3 3 4 4 6 7 6 4 3 3 3 3 5 5 6 6 5 5 4 3 2 1 1 2 2 3 4 4 4 3 2 3 2 2 2 2 4 3 3 3 4
Wind_Direction
145 136 125 114 107 103 108 104 99 99 100 100 100 99 92 87 78 55 37 68 79 93 100 104 108 111 105 104 100 91 84 80 80 79 74 69 65 59 58 58 54 50 47
147 141 137 126 116 115 113 115 119 112 103 106 101 99 97 90 78 72 52 50 61 72 86 90 93 108 111 110 106 99 85 82 83 80 75 69 64 57 54 53 49 46 46
147 142 142 138 134 124 113 102 95 96 97 92 93 97 93 90 93 83 72 60 49 50 68 74 73 81 91 103 108 100 95 89 82 84 73 67 63 53 48 45 42 41 41
154 145 145 146 135 126 123 122 118 100 92 93 90 89 93 93 92 89 78 72 63 46 47 59 59 63 76 85 87 93 105 102 82 76 68 63 57 48 46 41 32 34 28
160 153 156 151 140 130 126 130 112 115 117 102 89 72 72 92 102 98 89 81 78 75 55 49 49 46 59 79 75 65 58 77 68 57 51 54 51 37 24 11 8 9 6
163 158 154 150 146 139 134 127 117 89 113 119 92 62 38 49 73 94 107 90 79 81 70 52 35 32 42 60 62 48 33 42 44 38 34 30 19 350 325 323 325 326 329
166 164 157 157 157 156 154 141 124 107 88 98 87 54 18 38 68 75 99 102 72 69 72 66 58 59 22 32 26 26 20 10 10 7 359 349 334 324 313 313 311 310 311
174 171 166 167 167 156 150 148 135 125 112 130 119 114 71 350 354 37 90 164 176 88 89 59 70 78 61 21 1 6 355 350 340 329 318 317 315 311 308 301 303 307 308
184 178 177 171 170 167 171 170 162 148 154 176 132 146 155 199 254 307 297 288 214 152 208 230 211 27 38 264 326 343 347 335 317 306 299 299 300 301 294 296 300 301 302
184 182 179 177 175 174 174 177 172 163 156 165 162 52 124 147 154 197 293 302 290 251 235 222 236 240 268 261 291 327 332 316 304 299 295 294 295 298 298 294 294 296 300
186 183 179 178 179 179 178 176 170 169 166 169 166 150 103 66 125 154 210 261 286 261 253 234 230 242 250 255 254 285 306 295 290 293 291 290 292 296 300 301 298 295 295
188 187 179 179 180 178 180 180 177 177 176 169 164 159 156 160 177 164 174 211 243 263 262 249 235 237 246 258 258 280 285 288 287 287 287 289 294 297 300 301 303 303 299
193 195 184 182 182 182 176 174 177 181 179 176 180 185 174 174 165 161 154 172 212 269 268 253 230 228 255 275 267 278 276 286 285 284 285 289 294 297 300 300 298 301 302
195 187 185 182 182 180 174 171 174 183 180 182 186 182 177 180 172 170 164 155 164 266 265 255 255 226 243 257 277 283 272 286 285 283 284 287 293 299 298 296 297 296 299
186 184 184 182 181 179 175 172 179 186 182 186 185 184 185 186 184 178 168 165 161 196 239 238 239 246 253 253 290 296 271 277 280 279 282 287 292 293 293 293 294 295 296
185 181 185 183 180 180 177 176 180 185 180 186 182 182 190 185 182 180 176 179 173 176 223 231 229 247 254 260 287 288 284 292 282 279 280 285 285 283 284 287 291 293 293
185 185 184 181 181 181 177 177 184 180 181 186 187 189 195 183 183 185 176 173 180 169 208 257 251 262 242 254 296 286 285 287 281 282 281 283 281 280 281 285 290 292 291
188 188 184 181 182 183 180 180 184 186 187 192 193 191 197 188 185 186 184 188 192 188 184 235 250 246 249 246 251 275 286 287 283 286 289 290 286 286 286 288 289 294 295
187 187 185 184 185 186 187 189 188 191 195 197 194 195 196 187 195 195 191 191 194 197 184 205 245 249 256 249 263 279 278 281 288 293 292 289 292 295 294 292 290 292 292
189 190 192 189 186 189 190 192 191 193 197 199 199 199 197 196 199 195 196 195 190 187 185 199 234 245 250 254 213 258 288 283 289 294 289 291 297 300 294 292 292 291 288
190 188 188 188 184 189 195 193 192 192 191 195 200 201 201 206 207 202 199 192 183 186 189 210 229 238 244 236 232 237 266 292 284 259 280 284 286 287 290 287 287 283 282
180 179 187 188 189 198 200 198 193 189 189 190 196 199 203 206 213 218 216 206 196 192 199 204 223 230 240 230 218 231 250 279 281 242 260 284 264 269 271 265 276 279 280
179 181 185 188 197 201 197 196 195 186 187 191 194 194 201 209 207 205 215 220 222 227 219 205 215 228 225 215 204 224 232 243 256 247 239 272 262 266 270 275 283 283 281
184 184 185 189 194 204 195 194 190 180 182 190 195 196 196 199 203 199 196 209 223 232 231 219 216 227 226 213 207 214 222 258 275 260 207 256 265 268 281 274 281 283 289
182 184 184 183 188 203 194 185 177 172 182 190 194 196 195 198 213 206 193 203 228 252 254 244 247 249 244 230 210 179 193 240 279 272 214 230 260 283 280 269 271 279 289
175 174 177 181 188 198 193 184 179 175 181 187 188 196 207 210 214 208 194 194 217 234 219 232 263 269 248 224 220 205 195 215 255 267 223 221 253 293 293 272 266 277 283